EW8150 Weather Reports


time (UTC)temp
C
wind
direction
speed
KPH
gust
KPH
rain 1hr
cm
rain 24hr
cm
rain mn
cm
humidity
%
barometer
mb
20260505111526 8 294 1.6 11.3 0.00 0.00 0.00 87 1006.3
20260505101514 9 234 0.0 6.4 0.00 0.00 0.00 83 1005.4
20260505100034 9 292 0.0 4.8 0.00 0.00 0.00 84 1005.4
20260505094507 10 265 0.0 4.8 0.00 0.00 0.00 80 1005.2
20260505093032 10 247 0.0 3.2 0.00 0.00 0.00 82 1005.4
20260505091507 10 269 0.0 4.8 0.00 0.00 0.00 82 1004.8
20260505090026 10 259 0.0 8.0 0.00 0.00 0.00 77 1004.6
20260505084600 10 254 0.0 6.4 0.00 0.00 0.00 81 1004.6
20260505084501 10 257 0.0 6.4 0.00 0.00 0.00 80 1004.4
20260505083028 10 220 0.0 6.4 0.00 0.00 0.00 82 1004.1
20260505081603 10 281 1.6 6.4 0.00 0.00 0.00 84 1003.7
20260505081502 10 281 1.6 6.4 0.00 0.00 0.00 84 1003.6
20260505080026 10 258 0.0 0.0 0.00 0.03 0.00 87 1003.6
20260505074554 10 231 0.0 1.6 0.00 0.03 0.00 88 1003.5
20260505073014 11 291 0.0 1.6 0.00 0.03 0.00 87 1003.0
20260505071553 12 271 0.0 1.6 0.00 0.03 0.00 85 1003.4
20260505070008 12 219 1.6 6.4 0.00 0.03 0.00 79 1003.5
20260505064541 13 237 3.2 6.4 0.00 0.03 0.00 81 1003.6
20260505063052 13 239 0.0 3.2 0.00 0.03 0.00 83 1003.1
20260505061517 13 184 0.0 3.2 0.00 0.03 0.00 83 1003.0
20260505060035 13 338 0.0 12.9 0.00 0.03 0.00 83 1002.9
20260505054504 14 256 1.6 9.7 0.00 0.03 0.00 81 1002.5
20260505053011 15 225 1.6 6.4 0.00 0.03 0.00 81 1002.0
20260505051518 15 340 3.2 14.5 0.00 0.03 0.00 80 1001.8
20260505041551 16 198 1.6 8.0 0.00 0.03 0.00 85 1000.6
20260505040048 16 265 4.8 9.7 0.00 0.03 0.03 85 1000.6
20260505034525 16 202 4.8 12.9 0.00 0.03 0.03 85 1000.7
20260505033105 16 186 4.8 11.3 0.00 0.03 0.03 84 1000.6
20260505031524 16 246 4.8 12.9 0.00 0.03 0.03 83 1000.6
20260505030044 16 219 3.2 9.7 0.00 0.03 0.03 83 1000.6
20260505024528 16 220 3.2 8.0 0.00 0.03 0.03 82 1000.2
20260505023048 16 167 3.2 8.0 0.00 0.03 0.03 82 1000.1
20260505021516 17 217 4.8 11.3 0.00 0.03 0.03 81 1000.5
20260505020043 17 233 6.4 12.9 0.00 0.03 0.03 80 1000.6
20260505014515 17 156 4.8 19.3 0.00 0.03 0.03 80 1000.5
20260505013035 17 194 8.0 17.7 0.00 0.03 0.03 77 1000.0
20260505011509 18 179 8.0 20.9 0.00 0.03 0.03 80 999.2
20260505010028 20 182 4.8 17.7 0.00 0.03 0.03 77 999.7
20260505004600 20 182 1.6 6.4 0.00 0.03 0.03 76 999.1
20260505003021 21 254 4.8 16.1 0.00 0.03 0.03 74 999.4
20260505001551 21 186 4.8 19.3 0.00 0.03 0.03 70 999.2
20260505000018 22 198 8.0 14.5 0.00 0.03 0.03 66 999.2
20260504234612 22 205 3.2 14.5 0.00 0.03 0.03 65 999.2
20260504233057 23 184 8.0 17.7 0.00 0.03 0.03 61 999.4
20260504231537 24 209 1.6 9.7 0.00 0.03 0.03 54 999.2
20260504230037 24 180 4.8 11.3 0.00 0.03 0.03 53 999.2
20260504224503 25 272 4.8 9.7 0.00 0.03 0.03 52 999.6
20260504223059 25 232 3.2 11.3 0.00 0.03 0.03 53 999.7
20260504223005 25 215 3.2 11.3 0.00 0.03 0.03 52 999.6
20260504221511 25 299 3.2 9.7 0.00 0.03 0.03 52 999.8
20260504220004 25 242 6.4 16.1 0.00 0.03 0.03 51 999.9
20260504214518 26 189 4.8 11.3 0.00 0.03 0.03 51 1000.1
20260504213009 26 249 1.6 11.3 0.00 0.03 0.03 51 1000.4
20260504211515 26 180 4.8 14.5 0.00 0.03 0.03 50 1000.7
20260504210013 26 249 1.6 19.3 0.00 0.03 0.03 53 1000.9
20260504204550 26 148 6.4 16.1 0.00 0.03 0.03 53 1000.9
20260504203031 26 315 3.2 17.7 0.00 0.03 0.03 54 1001.2
20260504201551 26 330 4.8 14.5 0.00 0.03 0.03 52 1001.3
20260504200038 26 245 6.4 14.5 0.00 0.03 0.03 49 1001.3
20260504194552 26 151 9.7 24.1 0.00 0.03 0.03 48 1001.6
20260504193039 25 252 9.7 16.1 0.00 0.03 0.03 48 1001.6
20260504191553 26 254 6.4 19.3 0.00 0.03 0.03 48 1001.7
20260504190042 26 246 8.0 17.7 0.00 0.03 0.03 49 1001.7
20260504184602 26 244 4.8 20.9 0.00 0.03 0.03 50 1002.0
20260504183043 25 190 8.0 20.9 0.00 0.03 0.03 50 1002.2
20260504181549 25 251 4.8 20.9 0.00 0.03 0.03 50 1002.2
20260504180040 25 159 8.0 24.1 0.00 0.03 0.03 45 1002.3
20260504174549 25 263 6.4 17.7 0.00 0.03 0.03 46 1002.3
20260504173034 25 214 8.0 20.9 0.00 0.03 0.03 46 1002.5
20260504171545 24 315 3.2 19.3 0.00 0.03 0.03 47 1002.8